Tracking 25405 objects as of 27-Jan-2022
HD Live streaming from Space Station
objects crossing your sky now

STARLINK-1762

Track STARLINK-1762 now!
10-day predictions
STARLINK-1762 is classified as:


NORAD ID: 46342
Int'l Code: 2020-062T
Perigee: 553.1 km
Apogee: 555.6 km
Inclination: 53.1 °
Period: 95.6 minutes
Semi major axis: 6925 km
RCS: Unknown
Launch date: September 3, 2020
Source: United States (US)
Launch site: AIR FORCE EASTERN TEST RANGE (AFETR)
aabbcc
Your satellite tracking list
Your tracking list is empty




NASA's NSSDC Master Catalog

Two Line Element Set (TLE):
1 46342U 20062T   22026.42501285  .00001107  00000-0  93218-4 0  9994
2 46342  53.0535 285.0326 0001801  61.6275 298.4895 15.06399325 77737
Source of the keplerian elements: AFSPC